This demonstration page uses our WeatherBlox Daily Observations layout. Learn more.

Left ArrowRight Arrow

Hourly Observations for March 17, 2021

Temp ( °F °C ) Dew Point ( °F °C ) Humidity (%) Winds ( mph kmh ) Pressure ( in mb ) Visibility ( mi km ) Precip ( " mm )
12:53 am 00:53 Clear 31 -0.6 20 -6.7 64 64 E 6 9 30.07 1018 10 16 N/A
1:53 am 01:53 Clear 30 -1.1 20 -6.7 66 66 ENE 9 15 30.08 1019 10 16 N/A
2:53 am 02:53 Clear 29 -1.7 20 -6.7 69 69 ENE 7 11 30.09 1019 10 16 N/A
3:53 am 03:53 Partly Cloudy 26 -3.3 19 -7.2 75 75 E 6 9 30.11 1020 10 16 N/A
4:53 am 04:53 Clear 25 -3.9 19 -7.2 78 78 ENE 8 13 30.12 1020 10 16 N/A
5:53 am 05:53 Clear 25 -3.9 18 -7.8 75 75 ENE 9 15 30.15 1021 10 16 N/A
6:53 am 06:53 Clear 24 -4.4 17 -8.3 75 75 E 5 7 30.16 1022 10 16 N/A
7:53 am 07:53 Sunny 21 -6.1 17 -8.3 85 85 N N/A 30.21 1023 10 16 N/A
8:53 am 08:53 Sunny 26 -3.3 19 -7.2 75 75 N N/A 30.21 1023 10 16 N/A
9:53 am 09:53 Sunny 32 undefined 22 -5.6 66 66 N N/A 30.21 1023 10 16 N/A
10:53 am 10:53 Sunny 37 2.8 24 -4.4 59 59 N N/A 30.21 1023 10 16 N/A
11:53 am 11:53 Sunny 43 6.1 24 -4.4 47 47 N N/A 30.19 1023 10 16 N/A
12:53 pm 12:53 Sunny 50 10 24 -4.4 36 36 VRB 3 6 30.16 1022 10 16 N/A
1:53 pm 13:53 Sunny 55 12.8 24 -4.4 30 30 VRB 3 6 30.13 1020 10 16 N/A
2:53 pm 14:53 Sunny 57 13.9 24 -4.4 28 28 W 6 9 30.11 1020 10 16 N/A
3:53 pm 15:53 Sunny 58 14.4 24 -4.4 27 27 N N/A 30.10 1019 10 16 N/A
4:53 pm 16:53 Sunny 58 14.4 23 -5 26 26 ENE 3 6 30.10 1019 10 16 N/A
5:53 pm 17:53 Sunny 58 14.4 23 -5 26 26 ENE 6 9 30.08 1019 10 16 N/A
6:53 pm 18:53 Sunny 54 12.2 25 -3.9 33 33 E 8 13 30.09 1019 10 16 N/A
7:53 pm 19:53 Clear 46 7.8 26 -3.3 46 46 ESE 8 13 30.10 1019 10 16 N/A
8:53 pm 20:53 Clear 42 5.6 25 -3.9 51 51 E 5 7 30.10 1019 10 16 N/A
9:53 pm 21:53 Clear 39 3.9 23 -5 53 53 ENE 12 19 30.09 1019 10 16 N/A
10:53 pm 22:53 Clear 37 2.8 21 -6.1 52 52 NE 12 19 30.09 1019 10 16 N/A
11:53 pm 23:53 Clear 39 3.9 21 -6.1 48 48 VRB 5 7 30.06 1018 10 16 N/A

Powered by AerisWeather